SCP
0 0 0 0 0 0 0 0 0 0 0 0 0 0 0 0 0 0 0 0 0 0 0 0 0 0 0 0 0 0 0 0 0 0 0 0 0 0 0 0 0 0 0
0 0 0 0 0 0 0 0 0 0 0 0 0 0 0 0 0 0 0 0 0 0 0 0 0 0 0 0 0 0 0 0 0 0 0 0 0 0 0 0 0 0 0
0 0 0 0 0 0 0 0 0 0 0 0 0 0 0 0 0 0 0 0 0 0 0 0 0 0 0 0 0 0 0 0 0 0 0 0 0 0 0 0 0 0 0
0 0 0 0 0 0 0 0 0 0 0 0 0 0 0 0 0 0 0 0 0 0 0 0 0 0 0 0 0 0 0 0 0 0 0 0 0 0 0 0 0 0 0
0 0 0 0 0 0 0 1 1 1 0 0 0 0 0 0 0 0 0 0 0 0 0 0 0 0 0 0 0 0 0 0 0 0 0 0 0 0 0 0 0 0 0
0 0 0 0 0 1 1 1 1 1 1 0 0 0 0 0 0 0 0 0 0 0 0 0 0 0 0 0 0 0 0 0 0 0 0 0 0 0 0 0 0 0 0
0 0 0 0 0 1 1 1 1 1 1 0 0 0 0 0 0 0 0 0 0 0 0 0 0 0 0 0 0 0 0 0 0 0 0 0 0 0 0 0 0 0 0
0 0 0 0 1 1 1 1 1 1 1 1 0 0 0 0 0 0 0 0 0 0 0 0 0 0 0 0 0 0 0 0 0 0 0 0 0 0 0 0 0 0 0
0 0 0 0 1 1 1 1 1 1 1 1 0 0 0 0 0 0 0 0 0 0 0 0 0 0 0 0 0 0 0 0 0 0 0 0 0 0 0 0 0 0 0
0 0 0 1 1 1 1 1 1 1 1 1 1 0 0 0 0 0 0 0 0 0 0 0 0 0 0 0 0 0 0 0 0 0 0 0 0 0 0 0 0 0 0
0 0 1 1 1 1 1 1 1 1 1 1 1 1 0 0 0 0 0 0 0 0 0 0 0 0 0 0 0 0 0 0 0 0 0 0 0 0 0 0 0 0 0
0 1 1 1 1 1 1 1 1 1 1 1 1 1 1 0 0 0 0 0 0 0 0 0 0 0 0 0 0 0 0 0 0 0 0 0 0 0 0 0 0 0 0
0 0 0 0 1 1 1 1 1 1 1 1 1 1 1 1 0 0 0 0 0 0 0 0 0 0 0 0 0 0 0 0 0 0 0 0 0 0 0 0 0 0 0
0 0 0 0 0 1 1 1 1 1 1 1 1 1 1 1 0 0 0 0 0 0 0 0 0 0 0 0 0 0 0 0 0 0 0 0 0 0 0 0 0 0 0
0 0 1 1 1 1 1 1 1 1 1 1 1 1 1 1 1 1 1 1 1 1 1 1 0 1 0 0 0 0 0 0 0 0 0 0 0 0 0 0 0 0 0
0 0 1 1 1 1 1 1 1 1 1 1 1 1 1 1 1 1 1 1 1 1 1 1 1 1 1 0 0 0 0 0 0 0 0 0 0 0 0 0 0 0 0
0 0 1 1 1 1 1 1 1 1 1 1 1 1 1 1 1 1 1 1 1 1 1 1 1 1 1 1 0 0 0 0 0 0 0 0 0 0 0 0 0 0 0
0 1 1 1 1 1 1 1 1 1 1 1 1 1 1 1 1 1 1 1 1 1 1 1 1 1 1 1 0 0 0 0 0 0 0 0 0 0 0 0 0 0 0
1 1 1 1 1 1 1 2 2 2 2 1 1 1 1 1 1 1 1 1 1 1 1 1 1 1 1 0 0 0 0 0 0 0 0 0 0 0 0 0 0 0 0
1 1 1 1 1 1 1 1 2 2 1 1 1 1 1 1 1 1 1 1 1 1 1 1 1 1 1 0 0 0 0 0 0 0 0 0 0 0 0 0 0 0 0
1 1 1 1 1 1 1 1 1 1 1 1 1 1 1 1 1 1 1 1 1 1 1 1 1 1 1 0 0 0 0 0 0 0 0 0 0 0 0 0 0 0 0
1 1 1 1 0 0 0 1 1 1 1 1 1 1 1 1 1 1 1 1 1 1 1 1 1 1 0 0 0 0 0 0 0 0 0 0 0 0 0 0 0 0 0
0 0 0 0 0 0 0 0 1 1 1 1 1 1 1 1 1 1 1 1 1 1 1 1 1 1 1 0 0 0 0 0 0 0 0 0 0 0 0 0 0 0 0
0 0 0 0 0 0 0 0 1 1 1 1 1 1 1 1 1 1 1 1 1 1 1 1 1 1 1 0 0 0 0 0 0 0 0 0 0 0 0 0 0 0 0
0 0 0 0 0 0 0 1 1 1 1 1 1 1 1 1 1 1 1 1 1 1 1 1 1 1 1 0 0 0 0 0 0 0 0 0 0 0 0 0 0 0 0
0 0 0 0 0 0 1 1 1 1 1 1 1 1 1 1 1 1 1 1 1 1 1 1 1 1 0 0 0 0 0 0 0 0 0 0 0 0 0 0 0 0 0
Wind_Speed
10 9 10 10 8 7 7 7 6 5 4 3 2 2 1 1 1 1 2 2 2 2 2 1 1 2 2 2 2 2 1 1 1 2 1 1 0 1 2 2 3 4 5
9 10 9 9 9 8 8 7 7 6 5 3 3 2 2 1 2 1 1 2 2 2 3 2 2 2 2 2 2 2 1 1 1 2 1 1 3 2 2 2 3 4 3
13 12 11 10 9 9 9 8 7 6 5 4 3 2 2 1 1 0 1 1 2 2 2 2 2 2 2 2 2 2 3 1 0 2 3 2 2 2 2 2 2 3 3
11 11 11 11 11 10 8 7 7 6 5 5 4 4 3 2 2 2 1 1 1 2 2 2 2 2 1 1 1 1 2 2 1 1 1 2 3 2 1 2 2 2 2
12 12 12 12 11 10 9 7 7 6 5 5 5 4 3 2 1 1 1 1 1 1 2 2 2 2 1 1 1 1 1 2 2 1 1 1 0 1 2 1 2 2 2
11 11 10 9 8 8 8 8 8 6 6 5 5 5 4 3 3 2 2 1 0 0 1 2 1 2 1 2 1 1 1 1 2 1 1 2 1 1 2 2 2 2 2
10 10 10 10 10 10 9 8 8 7 6 6 5 5 5 4 4 4 3 2 1 1 1 1 1 1 1 2 2 1 1 1 1 1 1 1 2 2 2 2 1 1 2
10 11 12 12 11 11 10 9 9 7 7 7 6 5 5 4 3 4 3 3 2 2 2 2 2 2 2 2 2 1 1 1 1 1 1 1 1 1 2 2 2 1 2
9 9 10 10 10 10 10 10 10 8 8 7 6 4 5 4 4 4 3 2 2 2 2 2 2 2 2 2 2 1 1 1 1 1 1 1 1 1 1 2 2 3 1
8 8 8 9 8 8 8 8 9 9 8 7 6 6 5 5 4 4 3 3 3 2 2 2 2 2 2 2 2 1 1 1 1 1 1 1 1 1 1 1 1 2 3
7 8 7 8 8 8 8 8 8 8 7 6 5 5 4 4 4 3 4 3 3 3 3 3 3 2 2 2 2 2 1 1 1 1 1 2 1 1 1 1 1 1 2
6 7 7 7 6 6 7 7 7 7 7 6 5 4 4 3 3 3 3 3 3 2 3 2 2 2 2 2 2 3 2 2 2 2 2 2 2 2 2 1 1 2 2
5 6 6 7 7 6 6 6 7 7 6 6 5 5 4 4 3 4 3 3 3 2 2 2 2 2 2 2 3 3 3 3 3 3 3 3 2 2 2 2 1 1 1
5 6 6 5 6 5 5 5 6 6 7 6 6 5 5 5 5 4 3 3 3 3 2 2 2 2 3 3 3 3 3 3 3 3 3 3 4 4 3 2 2 2 1
4 5 5 4 4 4 4 5 5 5 6 6 6 6 6 5 4 4 3 3 3 3 3 2 2 2 2 3 3 3 3 2 2 2 3 3 4 4 4 3 3 2 2
2 3 4 4 4 5 5 5 5 5 5 5 5 5 4 4 4 4 3 3 3 3 3 3 3 3 3 3 4 3 2 2 3 3 3 3 3 3 4 3 4 4 3
2 2 2 3 4 5 5 5 4 4 5 5 4 4 4 4 4 5 4 4 4 3 3 3 3 3 4 4 5 5 3 3 3 3 2 2 2 1 1 2 2 2 3
2 1 1 1 1 2 3 4 4 4 4 3 3 2 3 4 4 4 4 4 3 3 3 3 4 3 4 5 5 5 3 3 3 3 3 3 2 2 2 2 1 1 2
2 1 1 1 2 2 3 4 4 4 3 3 3 3 4 3 3 3 4 4 3 3 3 3 3 3 4 4 4 4 2 2 3 3 3 3 3 2 3 3 2 1 2
2 2 1 1 2 2 3 4 4 3 3 3 3 3 3 4 4 4 3 3 3 3 3 3 3 3 3 3 3 3 2 2 3 2 3 3 3 3 4 4 3 2 3
1 2 2 1 1 2 3 3 2 3 4 3 2 2 3 3 4 3 2 2 2 2 2 2 2 2 3 3 3 4 3 3 2 2 2 2 4 4 5 4 4 4 3
1 2 2 1 0 1 3 3 3 3 2 2 2 2 2 3 2 2 2 2 2 2 2 2 2 2 2 3 3 4 4 3 3 3 3 3 4 4 5 4 3 3 2
0 1 2 1 1 0 3 3 3 2 2 2 2 2 2 2 2 2 2 2 2 2 3 2 3 3 2 2 3 3 4 3 2 2 3 3 4 4 3 3 2 2 1
0 1 1 1 1 1 2 3 2 2 2 2 2 2 2 2 1 2 2 2 3 3 3 3 3 3 2 2 2 2 2 2 1 1 1 1 2 1 1 1 1 1 1
1 1 2 2 2 1 2 2 1 1 1 1 1 2 2 2 2 2 2 3 3 4 4 4 4 3 3 4 5 3 3 2 2 1 1 1 1 0 1 1 1 0 0
1 1 1 1 1 1 1 1 1 2 2 1 1 2 2 2 2 1 1 1 1 2 3 4 4 4 4 3 4 3 3 3 3 2 1 1 1 2 1 1 1 1 1
Wind_Direction
172 164 164 160 154 153 151 152 151 158 147 137 139 134 156 170 182 189 177 169 163 149 143 135 142 143 145 163 161 152 148 163 142 104 22 341 286 206 213 210 198 208 208
167 170 168 166 164 164 162 159 162 164 162 161 162 159 156 174 181 188 168 166 156 156 157 146 154 156 145 145 156 149 149 180 146 134 111 356 345 323 247 218 211 220 207
173 173 172 173 169 172 172 170 170 166 166 157 138 119 79 46 50 77 170 188 157 153 148 145 152 154 155 175 187 163 158 176 239 150 149 157 221 292 316 256 230 223 214
177 176 175 176 177 178 173 167 166 164 165 157 152 152 156 171 199 187 178 192 168 159 158 148 152 148 149 166 184 153 151 148 187 257 189 175 166 162 307 323 293 252 226
179 178 178 178 176 172 166 162 158 160 163 162 166 164 169 182 178 148 141 164 171 163 157 148 146 141 147 157 151 132 144 158 162 167 164 135 86 141 155 266 307 315 280
177 177 176 170 169 170 166 162 159 166 168 166 167 169 171 171 157 156 159 173 169 170 147 141 138 144 146 154 164 161 153 160 157 163 158 157 159 183 167 207 257 285 290
172 172 171 172 174 173 171 167 166 171 173 167 170 171 168 166 166 169 172 168 166 189 209 167 150 148 159 161 160 155 162 170 168 181 191 179 194 178 163 163 223 269 289
172 174 177 176 177 176 171 168 170 173 174 175 180 176 170 171 174 173 170 176 188 200 197 181 177 177 176 174 163 158 188 156 170 186 184 188 227 196 178 175 176 261 310
166 168 170 172 174 172 173 174 173 174 178 181 179 179 177 175 174 176 176 182 195 197 192 189 185 186 178 177 163 165 198 175 179 195 188 203 236 224 215 188 175 173 233
157 158 165 167 168 172 172 171 172 178 183 183 184 185 187 184 179 176 180 185 193 195 181 185 187 191 188 182 166 171 192 169 215 201 177 210 236 228 224 202 192 176 183
157 153 156 159 160 163 163 167 171 175 181 185 186 187 187 188 181 185 195 192 190 189 194 196 190 190 189 184 174 192 184 188 224 231 201 225 224 216 224 209 197 193 171
140 149 150 145 152 164 166 169 171 175 182 181 175 178 182 187 189 197 201 194 193 196 199 192 186 184 186 188 190 208 208 204 221 236 224 235 221 220 231 206 211 215 196
125 131 141 153 164 170 166 166 171 176 178 173 172 175 183 193 204 208 200 188 186 195 204 190 191 198 196 195 201 201 208 212 222 227 225 231 208 221 229 221 220 226 219
121 139 147 155 158 160 164 165 172 175 173 173 175 180 190 201 209 207 197 193 188 193 206 205 211 215 213 208 204 197 205 215 226 227 224 222 213 214 210 210 214 206 192
126 140 142 146 148 153 163 168 172 173 171 170 180 191 193 193 195 197 194 193 194 202 203 207 221 224 222 221 203 204 210 212 231 241 237 234 228 224 213 205 195 187 184
113 120 128 135 150 161 166 167 170 173 164 170 187 191 184 184 188 195 193 197 203 206 201 214 222 227 236 230 210 204 213 213 219 235 245 246 244 231 212 193 185 179 184
116 90 125 155 170 168 160 163 173 165 164 174 183 187 183 188 194 197 195 204 208 204 208 216 215 230 243 234 221 213 206 211 219 225 231 247 249 208 197 179 169 217 223
103 114 100 109 101 127 142 146 143 149 153 160 168 182 193 199 200 195 200 206 203 203 211 220 224 232 248 234 223 216 212 218 227 224 216 223 233 217 186 188 197 246 269
143 139 142 134 122 113 129 124 132 143 148 162 174 182 189 194 193 200 209 207 198 210 213 219 221 228 253 236 223 207 204 227 243 238 229 217 222 212 162 166 189 265 298
58 59 55 84 106 131 132 129 150 155 178 193 199 196 189 190 200 211 212 204 198 209 208 221 224 220 240 241 216 185 192 226 250 255 246 221 209 207 184 183 189 212 256
58 73 72 92 156 146 134 146 166 196 212 202 195 198 200 201 203 206 207 201 205 212 215 221 235 227 228 230 203 180 187 210 228 243 246 239 217 216 212 206 209 220 224
46 98 95 43 276 121 126 151 197 217 203 180 184 200 209 211 207 199 209 205 196 208 222 224 244 249 240 226 224 214 214 212 211 230 239 238 225 227 226 224 226 216 203
192 120 119 85 329 188 146 184 225 199 158 172 199 211 214 213 197 189 202 212 208 213 227 224 236 252 253 246 238 223 224 233 227 233 239 243 229 221 226 235 213 175 167
254 164 128 144 270 270 211 211 213 170 163 188 214 210 211 222 220 202 201 205 212 216 222 224 232 243 244 242 239 236 227 241 261 261 254 222 195 191 211 233 203 196 190
287 232 196 206 227 254 234 218 184 155 169 202 223 217 213 209 215 219 215 215 221 211 208 217 214 213 235 241 225 209 211 205 203 149 68 52 74 358 338 337 320 266 179
263 271 238 211 219 225 245 217 181 169 172 214 247 231 218 213 205 210 281 292 247 247 221 218 212 224 231 220 200 205 195 170 146 125 171 214 218 216 219 225 254 252 232